| time (UTC) | temp F | wind direction | speed MPH | gust MPH | rain 1hr in | rain 24hr in | rain mn in | humidity % | barometer mb |
| 20260902221040 | 60 | 0.0 | 0.0 | 0.03 | 0.06 | 0.00 | 83 | 1003.1 | |
| 20260902220039 | 61 | 0.0 | 0.0 | 0.02 | 0.05 | 0.00 | 81 | 1003.1 | |
| 20260902214943 | 61 | 0.0 | 0.0 | 0.02 | 0.05 | 0.00 | 79 | 1002.8 | |
| 20260902214023 | 62 | 0.0 | 0.0 | 0.00 | 0.03 | 0.00 | 78 | 1002.7 | |
| 20260902212857 | 62 | 0.0 | 0.0 | 0.00 | 0.03 | 0.00 | 75 | 1003.0 | |
| 20260902211828 | 62 | 0.0 | 0.0 | 0.00 | 0.03 | 0.00 | 74 | 1003.0 | |
| 20260902210745 | 63 | 0.0 | 0.0 | 0.00 | 0.03 | 0.00 | 71 | 1002.8 | |
| 20260902205824 | 64 | 0.0 | 0.0 | 0.00 | 0.03 | 0.00 | 70 | 1002.9 | |
| 20260902204721 | 64 | 0.0 | 0.0 | 0.00 | 0.03 | 0.00 | 69 | 1002.9 | |
| 20260902203742 | 65 | 0.0 | 0.0 | 0.00 | 0.03 | 0.00 | 66 | 1002.6 | |
| 20260902202757 | 65 | 0.0 | 0.0 | 0.00 | 0.03 | 0.00 | 64 | 1002.5 | |
| 20260902201745 | 66 | 0.0 | 0.0 | 0.00 | 0.03 | 0.00 | 63 | 1002.8 | |
| 20260902200738 | 66 | 0.0 | 0.0 | 0.00 | 0.03 | 0.00 | 61 | 1002.8 | |
| 20260902195638 | 67 | 0.0 | 0.0 | 0.00 | 0.03 | 0.00 | 59 | 1002.7 | |
| 20260902194647 | 67 | 0.0 | 0.0 | 0.00 | 0.03 | 0.00 | 60 | 1002.8 | |
| 20260902193625 | 67 | 0.0 | 0.0 | 0.00 | 0.03 | 0.00 | 60 | 1002.9 | |
| 20260902192543 | 67 | 0.0 | 0.0 | 0.00 | 0.03 | 0.00 | 59 | 1002.9 | |
| 20260902191429 | 66 | 0.0 | 0.0 | 0.00 | 0.03 | 0.00 | 60 | 1003.0 | |
| 20260902190510 | 66 | 0.0 | 0.0 | 0.00 | 0.03 | 0.00 | 60 | 1003.2 | |
| 20260902185418 | 65 | 0.0 | 0.0 | 0.00 | 0.03 | 0.00 | 63 | 1003.4 | |
| 20260902184242 | 64 | 0.0 | 0.0 | 0.00 | 0.03 | 0.00 | 63 | 1003.5 | |
| 20260902183107 | 64 | 0.0 | 0.0 | 0.00 | 0.03 | 0.00 | 63 | 1003.7 | |
| 20260902181932 | 64 | 0.0 | 0.0 | 0.00 | 0.03 | 0.00 | 63 | 1003.8 | |
| 20260902180757 | 64 | 0.0 | 0.0 | 0.00 | 0.03 | 0.00 | 64 | 1004.0 | |
| 20260902175817 | 64 | 0.0 | 0.0 | 0.00 | 0.03 | 0.00 | 64 | 1004.1 | |
| 20260902174840 | 64 | 0.0 | 0.0 | 0.00 | 0.03 | 0.00 | 63 | 1004.2 | |
| 20260902173917 | 64 | 0.0 | 0.0 | 0.00 | 0.03 | 0.00 | 66 | 1004.3 | |
| 20260902172917 | 63 | 0.0 | 0.0 | 0.00 | 0.03 | 0.00 | 68 | 1004.4 | |
| 20260902171852 | 62 | 0.0 | 0.0 | 0.00 | 0.03 | 0.00 | 69 | 1004.6 | |
| 20260902170816 | 62 | 0.0 | 0.0 | 0.00 | 0.03 | 0.00 | 71 | 1004.9 | |
| 20260902165811 | 61 | 0.0 | 0.0 | 0.00 | 0.03 | 0.00 | 71 | 1004.7 | |
| 20260902164730 | 61 | 0.0 | 0.0 | 0.00 | 0.03 | 0.00 | 71 | 1004.9 | |
| 20260902163656 | 61 | 0.0 | 0.0 | 0.00 | 0.03 | 0.00 | 71 | 1004.9 | |
| 20260902162621 | 60 | 0.0 | 0.0 | 0.00 | 0.03 | 0.00 | 74 | 1005.1 | |
| 20260902161608 | 59 | 0.0 | 0.0 | 0.00 | 0.03 | 0.00 | 74 | 1005.2 | |
| 20260902160648 | 58 | 0.0 | 0.0 | 0.00 | 0.03 | 0.00 | 75 | 1005.2 | |
| 20260902155529 | 58 | 0.0 | 0.0 | 0.00 | 0.03 | 0.00 | 77 | 1005.4 | |
| 20260902154521 | 57 | 0.0 | 0.0 | 0.00 | 0.03 | 0.00 | 82 | 1005.6 | |
| 20260902153456 | 56 | 0.0 | 0.0 | 0.00 | 0.03 | 0.00 | 84 | 1005.8 | |
| 20260902152352 | 56 | 0.0 | 0.0 | 0.00 | 0.03 | 0.00 | 85 | 1005.7 | |
| 20260902151241 | 56 | 0.0 | 0.0 | 0.00 | 0.03 | 0.00 | 85 | 1005.9 | |
| 20260902150115 | 55 | 0.0 | 0.0 | 0.00 | 0.03 | 0.00 | 88 | 1006.2 | |
| 20260902144957 | 55 | 0.0 | 0.0 | 0.00 | 0.03 | 0.00 | 89 | 1006.4 | |
| 20260902144021 | 55 | 0.0 | 0.0 | 0.00 | 0.03 | 0.00 | 88 | 1006.5 | |
| 20260902142948 | 55 | 0.0 | 0.0 | 0.00 | 0.03 | 0.00 | 89 | 1006.7 | |
| 20260902142001 | 54 | 0.0 | 0.0 | 0.00 | 0.03 | 0.00 | 90 | 1006.7 | |
| 20260902140958 | 54 | 0.0 | 0.0 | 0.00 | 0.03 | 0.00 | 90 | 1006.6 | |
| 20260902140012 | 54 | 0.0 | 0.0 | 0.00 | 0.03 | 0.00 | 90 | 1006.7 | |
| 20260902134942 | 54 | 0.0 | 0.0 | 0.00 | 0.03 | 0.00 | 90 | 1006.7 | |
| 20260902133953 | 54 | 0.0 | 0.0 | 0.00 | 0.03 | 0.00 | 89 | 1006.7 | |
| 20260902132956 | 54 | 0.0 | 0.0 | 0.00 | 0.03 | 0.00 | 89 | 1006.7 | |
| 20260902131830 | 55 | 0.0 | 0.0 | 0.00 | 0.03 | 0.00 | 88 | 1006.8 | |
| 20260902130857 | 55 | 0.0 | 0.0 | 0.00 | 0.03 | 0.00 | 88 | 1006.8 | |
| 20260902125827 | 55 | 0.0 | 0.0 | 0.00 | 0.03 | 0.00 | 88 | 1006.8 | |
| 20260902124703 | 55 | 0.0 | 0.0 | 0.00 | 0.03 | 0.00 | 88 | 1007.0 | |
| 20260902123626 | 55 | 0.0 | 0.0 | 0.00 | 0.03 | 0.00 | 88 | 1007.0 | |
| 20260902122554 | 55 | 0.0 | 0.0 | 0.00 | 0.03 | 0.00 | 89 | 1007.0 | |
| 20260902121507 | 55 | 0.0 | 0.0 | 0.00 | 0.03 | 0.00 | 89 | 1007.0 | |
| 20260902120426 | 54 | 0.0 | 0.0 | 0.00 | 0.03 | 0.00 | 90 | 1007.2 | |
| 20260902115249 | 54 | 0.0 | 0.0 | 0.00 | 0.03 | 0.00 | 90 | 1007.4 | |
| 20260902114208 | 54 | 0.0 | 0.0 | 0.00 | 0.03 | 0.00 | 90 | 1007.3 | |
| 20260902113042 | 54 | 0.0 | 0.0 | 0.00 | 0.03 | 0.00 | 91 | 1007.2 | |
| 20260902112040 | 55 | 0.0 | 0.0 | 0.00 | 0.03 | 0.00 | 90 | 1007.4 | |
| 20260902110946 | 55 | 0.0 | 0.0 | 0.00 | 0.03 | 0.00 | 91 | 1007.5 | |
| 20260902105958 | 55 | 0.0 | 0.0 | 0.00 | 0.03 | 0.00 | 91 | 1007.6 | |
| 20260902105001 | 55 | 0.0 | 0.0 | 0.00 | 0.03 | 0.00 | 90 | 1007.6 | |
| 20260902103827 | 55 | 0.0 | 0.0 | 0.00 | 0.03 | 0.00 | 90 | 1007.8 | |
| 20260902102658 | 55 | 0.0 | 0.0 | 0.00 | 0.03 | 0.00 | 91 | 1007.8 | |
| 20260902101546 | 55 | 0.0 | 0.0 | 0.00 | 0.03 | 0.00 | 91 | 1007.9 | |
| 20260902100501 | 56 | 0.0 | 0.0 | 0.00 | 0.03 | 0.00 | 92 | 1007.9 | |
| 20260902095457 | 56 | 0.0 | 0.0 | 0.02 | 0.03 | 0.00 | 93 | 1007.9 | |
| 20260902094533 | 56 | 0.0 | 0.0 | 0.02 | 0.03 | 0.00 | 94 | 1008.0 | |
| 20260902093433 | 56 | 0.0 | 0.0 | 0.02 | 0.03 | 0.00 | 93 | 1008.1 | |
| 20260902092409 | 56 | 0.0 | 0.0 | 0.01 | 0.02 | 0.00 | 93 | 1008.2 | |
| 20260902091422 | 56 | 0.0 | 0.0 | 0.01 | 0.02 | 0.00 | 93 | 1008.0 | |
| 20260902090416 | 56 | 0.0 | 0.0 | 0.01 | 0.02 | 0.00 | 91 | 1008.0 | |
| 20260902085343 | 56 | 0.0 | 0.0 | 0.00 | 0.00 | 0.00 | 90 | 1008.2 | |
| 20260902084327 | 56 | 0.0 | 0.0 | 0.00 | 0.00 | 0.00 | 91 | 1008.2 | |
| 20260902083401 | 56 | 0.0 | 0.0 | 0.00 | 0.00 | 0.00 | 91 | 1008.2 | |
| 20260902082432 | 56 | 0.0 | 0.0 | 0.00 | 0.00 | 0.00 | 90 | 1008.4 | |
| 20260902081403 | 56 | 0.0 | 0.0 | 0.00 | 0.00 | 0.00 | 91 | 1008.6 | |
| 20260902080223 | 56 | 0.0 | 0.0 | 0.00 | 0.00 | 0.00 | 91 | 1008.6 | |
| 20260902075255 | 56 | 0.0 | 0.0 | 0.00 | 0.00 | 0.00 | 91 | 1008.6 | |
| 20260902074202 | 57 | 0.0 | 0.0 | 0.00 | 0.00 | 0.00 | 92 | 1008.8 | |
| 20260902073207 | 57 | 0.0 | 0.0 | 0.00 | 0.00 | 0.00 | 91 | 1008.7 | |
| 20260902072230 | 57 | 0.0 | 0.0 | 0.00 | 0.00 | 0.00 | 91 | 1008.7 | |
| 20260902071117 | 57 | 0.0 | 0.0 | 0.00 | 0.00 | 0.00 | 90 | 1008.8 | |
| 20260902070008 | 57 | 0.0 | 0.0 | 0.00 | 0.00 | 0.00 | 91 | 1008.9 | |
| 20260902065014 | 57 | 0.0 | 0.0 | 0.00 | 0.00 | 0.00 | 90 | 1008.9 | |
| 20260902064010 | 57 | 0.0 | 0.0 | 0.00 | 0.00 | 0.00 | 90 | 1008.9 | |
| 20260902063301 | 57 | 0.0 | 0.0 | 0.00 | 0.00 | 0.00 | 91 | 1009.0 | |
| 20260902062912 | 57 | 0.0 | 0.0 | 0.00 | 0.00 | 0.00 | 91 | 1009.1 | |
| 20260902061915 | 57 | 0.0 | 0.0 | 0.00 | 0.00 | 0.00 | 90 | 1008.9 | |
| 20260902060817 | 57 | 0.0 | 0.0 | 0.00 | 0.00 | 0.00 | 90 | 1008.9 | |
| 20260902055639 | 57 | 0.0 | 0.0 | 0.00 | 0.00 | 0.00 | 90 | 1008.9 | |
| 20260902054612 | 57 | 0.0 | 0.0 | 0.00 | 0.00 | 0.00 | 90 | 1009.0 | |
| 20260902053626 | 57 | 0.0 | 0.0 | 0.00 | 0.00 | 0.00 | 89 | 1009.0 | |
| 20260902052702 | 57 | 0.0 | 0.0 | 0.00 | 0.00 | 0.00 | 89 | 1009.0 | |
| 20260902051548 | 57 | 0.0 | 0.0 | 0.00 | 0.00 | 0.00 | 89 | 1009.2 | |
| 20260902050434 | 57 | 0.0 | 0.0 | 0.00 | 0.00 | 0.00 | 90 | 1009.2 | |
| 20260902045742 | 57 | 0.0 | 0.0 | 0.00 | 0.00 | 0.00 | 90 | 1009.2 | |
| 20260902045426 | 57 | 0.0 | 0.0 | 0.00 | 0.00 | 0.00 | 90 | 1009.3 | |
| 20260902045335 | 57 | 0.0 | 0.0 | 0.00 | 0.00 | 0.00 | 90 | 1009.2 | |
| 20260902044501 | 57 | 0.0 | 0.0 | 0.00 | 0.00 | 0.00 | 89 | 1009.2 | |
| 20260902044216 | 57 | 0.0 | 0.0 | 0.00 | 0.00 | 0.00 | 89 | 1009.2 | |
| 20260902043908 | 57 | 0.0 | 0.0 | 0.00 | 0.00 | 0.00 | 89 | 1009.2 | |
| 20260902043237 | 57 | 0.0 | 0.0 | 0.00 | 0.00 | 0.00 | 89 | 1009.3 | |
| 20260902042123 | 58 | 0.0 | 0.0 | 0.00 | 0.00 | 0.00 | 89 | 1009.3 | |
| 20260902041733 | 58 | 0.0 | 0.0 | 0.00 | 0.00 | 0.00 | 89 | 1009.4 | |
| 20260902041206 | 58 | 0.0 | 0.0 | 0.00 | 0.00 | 0.00 | 90 | 1009.3 | |
| 20260902041115 | 58 | 0.0 | 0.0 | 0.00 | 0.00 | 0.00 | 90 | 1009.3 | |
| 20260902040141 | 58 | 0.0 | 0.0 | 0.00 | 0.00 | 0.00 | 90 | 1009.4 | |
| 20260902035131 | 58 | 0.0 | 0.0 | 0.00 | 0.00 | 0.00 | 91 | 1009.5 | |
| 20260902034150 | 59 | 0.0 | 0.0 | 0.00 | 0.00 | 0.00 | 89 | 1009.5 | |
| 20260902033028 | 59 | 0.0 | 0.0 | 0.00 | 0.00 | 0.00 | 86 | 1009.3 | |
| 20260902032219 | 60 | 0.0 | 0.0 | 0.00 | 0.00 | 0.00 | 83 | 1009.1 | |
| 20260902032044 | 60 | 0.0 | 0.0 | 0.00 | 0.00 | 0.00 | 82 | 1009.0 | |
| 20260902031021 | 60 | 0.0 | 0.0 | 0.00 | 0.00 | 0.00 | 82 | 1008.9 | |
| 20260902030008 | 60 | 0.0 | 0.0 | 0.00 | 0.00 | 0.00 | 80 | 1008.8 | |
| 20260902024942 | 60 | 0.0 | 0.0 | 0.00 | 0.00 | 0.00 | 81 | 1008.8 | |
| 20260902023821 | 60 | 0.0 | 0.0 | 0.00 | 0.00 | 0.00 | 81 | 1008.7 | |
| 20260902022747 | 61 | 0.0 | 0.0 | 0.00 | 0.00 | 0.00 | 81 | 1008.7 | |
| 20260902021748 | 61 | 0.0 | 0.0 | 0.00 | 0.00 | 0.00 | 81 | 1008.6 | |
| 20260902020830 | 61 | 0.0 | 0.0 | 0.00 | 0.00 | 0.00 | 81 | 1008.7 | |
| 20260902015906 | 61 | 0.0 | 0.0 | 0.00 | 0.00 | 0.00 | 80 | 1008.7 | |
| 20260902014909 | 61 | 0.0 | 0.0 | 0.00 | 0.00 | 0.00 | 80 | 1008.6 | |
| 20260902013916 | 61 | 0.0 | 0.0 | 0.00 | 0.00 | 0.00 | 80 | 1008.6 | |
| 20260902012831 | 61 | 0.0 | 0.0 | 0.00 | 0.00 | 0.00 | 81 | 1008.7 | |
| 20260902011806 | 61 | 0.0 | 0.0 | 0.00 | 0.00 | 0.00 | 81 | 1008.6 | |
| 20260902010840 | 61 | 0.0 | 0.0 | 0.00 | 0.00 | 0.00 | 80 | 1008.8 | |
| 20260902005712 | 61 | 0.0 | 0.0 | 0.00 | 0.00 | 0.00 | 78 | 1008.5 | |
| 20260902004658 | 62 | 0.0 | 0.0 | 0.00 | 0.00 | 0.00 | 77 | 1008.7 | |
| 20260902003634 | 62 | 0.0 | 0.0 | 0.00 | 0.00 | 0.00 | 77 | 1008.6 | |
| 20260902002458 | 62 | 0.0 | 0.0 | 0.00 | 0.00 | 0.00 | 77 | 1008.6 | |
| 20260902001355 | 62 | 0.0 | 0.0 | 0.00 | 0.00 | 0.00 | 77 | 1008.7 | |
| 20260902000349 | 62 | 0.0 | 0.0 | 0.00 | 0.00 | 0.00 | 78 | 1008.7 | |
| 20260901235409 | 61 | 0.0 | 0.0 | 0.00 | 0.00 | 0.00 | 78 | 1008.7 | |
| 20260901234332 | 61 | 0.0 | 0.0 | 0.00 | 0.00 | 0.00 | 78 | 1008.8 | |
| 20260901233402 | 62 | 0.0 | 0.0 | 0.00 | 0.00 | 0.00 | 77 | 1008.7 | |
| 20260901232250 | 62 | 0.0 | 0.0 | 0.00 | 0.00 | 0.00 | 77 | 1008.7 | |
| 20260901231144 | 62 | 0.0 | 0.0 | 0.00 | 0.00 | 0.00 | 77 | 1008.7 | |
| 20260901230210 | 62 | 0.0 | 0.0 | 0.00 | 0.00 | 0.00 | 77 | 1008.7 | |
| 20260901225252 | 62 | 0.0 | 0.0 | 0.00 | 0.00 | 0.00 | 77 | 1008.8 | |
| 20260901224243 | 62 | 0.0 | 0.0 | 0.00 | 0.00 | 0.00 | 78 | 1008.6 | |
| 20260901223152 | 62 | 0.0 | 0.0 | 0.00 | 0.00 | 0.00 | 78 | 1008.7 | |
| 20260901222142 | 61 | 0.0 | 0.0 | 0.00 | 0.00 | 0.00 | 78 | 1008.7 | |
| 20260901221200 | 62 | 0.0 | 0.0 | 0.00 | 0.00 | 0.00 | 78 | 1008.7 |